^^
Datos históricos de la estación: Murcia-Puente Tocinos
Diario Informe para Marzo 16, 2019 Unidades:  Métrico    Inglés   Ambas
Diario Semanal Mensual Anual Configurable
  Máximo: Mínimo: Media:
Temperatura: 26.2 °C 9.8 °C 17.2 °C
Punto de rocio: 8.9 °C -2.3 °C 2.8 °C
Humedad: 69% 16% 42%
Velocidad viento: 16.1km/h 0.0km/h 7.4km/h
Racha viento: 27.8km/h - -
Viento- - SSE
Presión: 1023.5 hPa 1016.5 hPa -
Precipitación: 0.0 mm    
Historical Graphs
 
 
Tabla de datos para Marzo 16, 2019
Hora Temperatura Punto de rocio Presión Viento Velocidad viento Racha viento Humedad Intensidad lluvia(por hora) Nubes
00:00 14.3 °C 4.6 °C 1023.5 hPa Calm     52% 0.0 mm CLR
00:05 14.3 °C 4.3 °C 1023.4 hPa Calm   3.9 km/h 51% 0.0 mm CLR
00:10 14.2 °C 3.9 °C 1023.4 hPa Calm     50% 0.0 mm CLR
00:15 14.3 °C 3.7 °C 1023.4 hPa Calm     49% 0.0 mm CLR
00:20 14.4 °C 3.5 °C 1023.3 hPa Calm   9.3 km/h 48% 0.0 mm CLR
00:25 14.5 °C 3.3 °C 1023.3 hPa Calm   5.8 km/h 47% 0.0 mm CLR
00:30 14.6 °C 3.4 °C 1023.3 hPa SW 4.7 km/h 7.4 km/h 47% 0.0 mm CLR
00:35 14.6 °C 3.4 °C 1023.2 hPa SW 4.7 km/h 5.8 km/h 47% 0.0 mm CLR
00:40 14.5 °C 3.3 °C 1023.2 hPa SW 5.0 km/h 7.4 km/h 47% 0.0 mm CLR
00:45 14.3 °C 3.1 °C 1023.2 hPa SW 5.0 km/h 7.4 km/h 47% 0.0 mm CLR
00:50 14.2 °C 3.1 °C 1023.1 hPa SSW 5.0 km/h 9.3 km/h 47% 0.0 mm CLR
00:55 14.2 °C 3.1 °C 1023.1 hPa SSW 5.0 km/h 11.1 km/h 47% 0.0 mm CLR
01:00 14.2 °C 3.0 °C 1023.1 hPa SSW 8.0 km/h 9.7 km/h 47% 0.0 mm CLR
01:05 14.1 °C 2.9 °C 1023.0 hPa SSW 6.9 km/h 9.3 km/h 47% 0.0 mm CLR
01:10 14.1 °C 2.9 °C 1023.0 hPa SW 6.9 km/h 11.1 km/h 47% 0.0 mm CLR
01:15 14.0 °C 2.8 °C 1023.0 hPa SSW 6.9 km/h 13.0 km/h 47% 0.0 mm CLR
01:20 13.9 °C 2.8 °C 1022.8 hPa SW 8.4 km/h 11.1 km/h 47% 0.0 mm CLR
01:25 13.9 °C 2.8 °C 1022.8 hPa SSW 8.4 km/h 9.3 km/h 47% 0.0 mm CLR
01:30 13.8 °C 2.9 °C 1022.8 hPa SSW 7.6 km/h 8.7 km/h 48% 0.0 mm CLR
01:35 13.7 °C 2.9 °C 1022.8 hPa SSW 7.6 km/h 9.3 km/h 48% 0.0 mm CLR
01:40 13.7 °C 2.9 °C 1022.8 hPa SW 6.4 km/h 7.4 km/h 48% 0.0 mm CLR
01:45 13.6 °C 2.8 °C 1022.8 hPa SW 6.4 km/h 9.3 km/h 48% 0.0 mm CLR
01:50 13.6 °C 2.8 °C 1022.7 hPa WSW 5.8 km/h 7.4 km/h 48% 0.0 mm CLR
01:55 13.6 °C 2.8 °C 1022.7 hPa SW 5.8 km/h 9.3 km/h 48% 0.0 mm CLR
02:00 13.6 °C 2.8 °C 1022.7 hPa SW 4.8 km/h 9.7 km/h 48% 0.0 mm CLR
02:05 13.5 °C 3.0 °C 1022.7 hPa SSW 5.8 km/h 7.4 km/h 49% 0.0 mm CLR
02:10 13.4 °C 2.9 °C 1022.7 hPa South 5.8 km/h 9.3 km/h 49% 0.0 mm CLR
02:15 13.3 °C 2.8 °C 1022.7 hPa South 5.8 km/h 9.5 km/h 49% 0.0 mm CLR
02:20 13.2 °C 2.7 °C 1022.6 hPa SSW 6.9 km/h 9.3 km/h 49% 0.0 mm CLR
02:25 13.2 °C 2.7 °C 1022.6 hPa South 6.9 km/h 11.1 km/h 49% 0.0 mm CLR
02:30 13.2 °C 2.7 °C 1022.6 hPa SSW 7.6 km/h 9.3 km/h 49% 0.0 mm CLR
02:35 13.1 °C 2.6 °C 1022.5 hPa SSW 7.6 km/h 9.3 km/h 49% 0.0 mm CLR
02:40 13.0 °C 2.5 °C 1022.5 hPa SSW 6.4 km/h 9.3 km/h 49% 0.0 mm CLR
02:45 12.9 °C 2.4 °C 1022.5 hPa SSW 6.4 km/h 7.4 km/h 49% 0.0 mm CLR
02:50 12.9 °C 2.4 °C 1022.4 hPa SSW 5.8 km/h 7.4 km/h 49% 0.0 mm CLR
02:55 12.8 °C 2.3 °C 1022.4 hPa SSW 5.8 km/h 9.3 km/h 49% 0.0 mm CLR
03:00 12.8 °C 2.3 °C 1022.4 hPa SSW 4.8 km/h 8.0 km/h 49% 0.0 mm CLR
03:05 12.7 °C 2.2 °C 1022.3 hPa SW 5.0 km/h 3.7 km/h 49% 0.0 mm CLR
03:10 12.7 °C 1.9 °C 1022.3 hPa SW 3.9 km/h 10.3 km/h 48% 0.0 mm CLR
03:15 12.7 °C 1.9 °C 1022.3 hPa SW 3.9 km/h 9.3 km/h 48% 0.0 mm CLR
03:20 12.6 °C 2.2 °C 1022.1 hPa WSW 6.4 km/h 11.1 km/h 49% 0.0 mm CLR
03:25 12.5 °C 2.1 °C 1022.1 hPa SW 6.4 km/h 9.3 km/h 49% 0.0 mm CLR
03:30 12.4 °C 2.3 °C 1022.1 hPa WSW 6.9 km/h 9.3 km/h 50% 0.0 mm CLR
03:35 12.3 °C 2.2 °C 1022.0 hPa SW 6.9 km/h 11.1 km/h 50% 0.0 mm CLR
03:40 12.3 °C 2.2 °C 1022.0 hPa SW 7.6 km/h 7.4 km/h 50% 0.0 mm CLR
03:45 12.3 °C 2.2 °C 1022.0 hPa SW 7.6 km/h 7.4 km/h 50% 0.0 mm CLR
03:50 12.2 °C 2.3 °C 1021.8 hPa SSW 4.7 km/h 7.6 km/h 51% 0.0 mm CLR
03:55 12.1 °C 2.3 °C 1021.8 hPa South 4.7 km/h 9.3 km/h 51% 0.0 mm CLR
04:00 11.9 °C 2.3 °C 1021.8 hPa South 4.8 km/h 9.7 km/h 52% 0.0 mm CLR
04:05 11.8 °C 2.5 °C 1021.6 hPa SSE 5.8 km/h 7.6 km/h 53% 0.0 mm CLR
04:10 11.6 °C 2.6 °C 1021.6 hPa South 5.0 km/h 9.3 km/h 54% 0.0 mm CLR
04:15 11.4 °C 2.7 °C 1021.6 hPa South 5.0 km/h 7.4 km/h 55% 0.0 mm CLR
04:20 11.3 °C 2.6 °C 1021.5 hPa South 5.8 km/h 5.6 km/h 55% 0.0 mm CLR
04:25 11.2 °C 2.5 °C 1021.5 hPa South 5.8 km/h 9.3 km/h 55% 0.0 mm CLR
04:30 11.1 °C 2.7 °C 1021.5 hPa South 5.8 km/h 7.4 km/h 56% 0.0 mm CLR
04:35 11.1 °C 2.7 °C 1021.6 hPa South 5.8 km/h 7.4 km/h 56% 0.0 mm CLR
04:40 10.9 °C 2.4 °C 1021.6 hPa South 5.0 km/h 7.6 km/h 56% 0.0 mm CLR
04:45 10.9 °C 2.4 °C 1021.6 hPa South 5.0 km/h 7.4 km/h 56% 0.0 mm CLR
04:50 10.8 °C 2.4 °C 1021.6 hPa South 5.8 km/h 7.4 km/h 56% 0.0 mm CLR
04:55 10.8 °C 2.4 °C 1021.6 hPa South 5.8 km/h 9.3 km/h 56% 0.0 mm CLR
05:00 10.8 °C 2.4 °C 1021.6 hPa SSE 4.8 km/h 9.7 km/h 56% 0.0 mm CLR
05:05 10.7 °C 2.3 °C 1021.7 hPa SSE 5.8 km/h 9.3 km/h 56% 0.0 mm CLR
05:10 10.6 °C 2.2 °C 1021.7 hPa SSE 6.9 km/h 13.0 km/h 56% 0.0 mm CLR
05:15 10.4 °C 2.2 °C 1021.7 hPa SSE 6.9 km/h 9.3 km/h 57% 0.0 mm CLR
05:20 10.3 °C 2.2 °C 1021.8 hPa SSE 8.4 km/h 11.1 km/h 57% 0.0 mm CLR
05:25 10.3 °C 2.2 °C 1021.8 hPa South 8.4 km/h 11.1 km/h 57% 0.0 mm CLR
05:30 10.3 °C 1.9 °C 1021.8 hPa SSE 7.6 km/h 13.0 km/h 56% 0.0 mm CLR
05:35 10.3 °C 1.9 °C 1021.9 hPa South 7.6 km/h 11.1 km/h 56% 0.0 mm CLR
05:40 10.4 °C 2.0 °C 1021.9 hPa South 8.4 km/h 14.8 km/h 56% 0.0 mm CLR
05:45 10.4 °C 1.7 °C 1021.9 hPa South 8.4 km/h 9.3 km/h 55% 0.0 mm CLR
05:50 10.5 °C 1.8 °C 1021.9 hPa South 7.6 km/h 10.0 km/h 55% 0.0 mm CLR
05:55 10.6 °C 1.9 °C 1021.9 hPa SSW 7.6 km/h 9.3 km/h 55% 0.0 mm CLR
06:00 10.6 °C 1.9 °C 1021.9 hPa SSW 8.0 km/h 9.7 km/h 55% 0.0 mm CLR
06:05 10.7 °C 1.8 °C 1021.8 hPa South 6.4 km/h 8.4 km/h 54% 0.0 mm CLR
06:10 10.7 °C 1.8 °C 1021.8 hPa SSW 6.4 km/h 10.0 km/h 54% 0.0 mm CLR
06:15 10.8 °C 1.8 °C 1021.8 hPa South 6.4 km/h 7.4 km/h 54% 0.0 mm CLR
06:20 10.8 °C 1.8 °C 1021.8 hPa SSW 6.4 km/h 9.3 km/h 54% 0.0 mm CLR
06:25 10.7 °C 1.8 °C 1021.8 hPa SSW 6.4 km/h 7.4 km/h 54% 0.0 mm CLR
06:30 10.7 °C 1.8 °C 1021.8 hPa SSW 5.8 km/h 7.4 km/h 54% 0.0 mm CLR
06:35 10.7 °C 1.8 °C 1021.9 hPa SSW 5.8 km/h 7.4 km/h 54% 0.0 mm CLR
06:40 10.8 °C 1.8 °C 1021.9 hPa South 5.8 km/h 5.6 km/h 54% 0.0 mm CLR
06:45 10.7 °C 1.8 °C 1021.9 hPa South 5.8 km/h 7.4 km/h 54% 0.0 mm CLR
06:50 10.6 °C 1.9 °C 1021.9 hPa South 5.0 km/h 9.5 km/h 55% 0.0 mm CLR
06:55 10.4 °C 1.7 °C 1021.9 hPa South 5.0 km/h 9.3 km/h 55% 0.0 mm CLR
07:00 10.4 °C 1.7 °C 1021.9 hPa South 8.0 km/h 11.3 km/h 55% 0.0 mm CLR
07:05 10.3 °C 1.7 °C 1021.9 hPa South 6.9 km/h 9.3 km/h 55% 0.0 mm CLR
07:10 10.3 °C 1.9 °C 1021.9 hPa South 6.9 km/h 11.1 km/h 56% 0.0 mm CLR
07:15 10.3 °C 1.9 °C 1021.9 hPa SSE 6.9 km/h 11.1 km/h 56% 0.0 mm CLR
07:20 10.2 °C 1.6 °C 1021.9 hPa SSE 8.4 km/h 11.1 km/h 55% 0.0 mm CLR
07:25 10.1 °C 1.7 °C 1021.9 hPa SSE 8.4 km/h 11.1 km/h 56% 0.0 mm CLR
07:30 10.0 °C 1.6 °C 1021.9 hPa SSE 8.7 km/h 13.0 km/h 56% 0.0 mm CLR
07:35 9.8 °C 1.7 °C 1021.9 hPa SSE 8.7 km/h 11.1 km/h 57% 0.0 mm CLR
07:40 9.8 °C 1.7 °C 1021.9 hPa South 8.7 km/h 11.1 km/h 57% 0.0 mm CLR
07:45 9.9 °C 1.8 °C 1021.9 hPa South 8.7 km/h 11.1 km/h 57% 0.0 mm CLR
07:50 10.0 °C 1.9 °C 1022.0 hPa SSW 8.4 km/h 11.1 km/h 57% 0.0 mm CLR
07:55 10.1 °C 1.7 °C 1022.0 hPa SSW 8.4 km/h 9.5 km/h 56% 0.0 mm CLR
08:00 10.2 °C 1.8 °C 1022.0 hPa South 8.0 km/h 11.3 km/h 56% 0.0 mm CLR
08:05 10.4 °C 1.7 °C 1022.1 hPa South 7.6 km/h 11.1 km/h 55% 0.0 mm CLR
08:10 10.6 °C 1.9 °C 1022.1 hPa South 7.6 km/h 9.3 km/h 55% 0.0 mm CLR
08:15 10.8 °C 1.8 °C 1022.1 hPa South 7.6 km/h 8.4 km/h 54% 0.0 mm CLR
08:20 10.9 °C 1.7 °C 1022.2 hPa South 6.4 km/h 9.3 km/h 53% 0.0 mm CLR
08:25 11.1 °C 1.9 °C 1022.2 hPa SSW 6.4 km/h 9.5 km/h 53% 0.0 mm CLR
08:30 11.3 °C 1.8 °C 1022.2 hPa SSW 6.4 km/h 9.3 km/h 52% 0.0 mm CLR
08:35 11.4 °C 1.9 °C 1022.2 hPa SW 6.4 km/h 9.3 km/h 52% 0.0 mm CLR
08:40 11.5 °C 2.0 °C 1022.2 hPa South 6.4 km/h 9.3 km/h 52% 0.0 mm CLR
08:45 11.7 °C 1.9 °C 1022.2 hPa SSW 6.4 km/h 11.1 km/h 51% 0.0 mm CLR
08:50 11.7 °C 1.6 °C 1022.2 hPa SSW 8.4 km/h 11.9 km/h 50% 0.0 mm CLR
08:55 11.8 °C 1.7 °C 1022.2 hPa SSW 8.4 km/h 11.1 km/h 50% 0.0 mm CLR
09:00 11.9 °C 1.8 °C 1022.2 hPa SSW 9.7 km/h 12.9 km/h 50% 0.0 mm CLR
09:05 12.1 °C 2.0 °C 1022.3 hPa SSW 8.7 km/h 11.9 km/h 50% 0.0 mm CLR
09:10 12.3 °C 1.9 °C 1022.3 hPa SSW 8.4 km/h 9.5 km/h 49% 0.0 mm CLR
09:15 12.6 °C 2.2 °C 1022.3 hPa South 8.4 km/h 7.4 km/h 49% 0.0 mm CLR
09:20 12.8 °C 2.3 °C 1022.3 hPa SSW 6.9 km/h 9.3 km/h 49% 0.0 mm CLR
09:25 13.1 °C 2.3 °C 1022.3 hPa South 6.9 km/h 8.7 km/h 48% 0.0 mm CLR
09:30 13.3 °C 2.2 °C 1022.3 hPa SSE 7.6 km/h 9.3 km/h 47% 0.0 mm CLR
09:35 13.6 °C 2.2 °C 1022.5 hPa South 7.6 km/h 9.3 km/h 46% 0.0 mm CLR
09:40 13.9 °C 2.4 °C 1022.5 hPa SSE 6.4 km/h 7.4 km/h 46% 0.0 mm CLR
09:45 14.2 °C 2.4 °C 1022.5 hPa SW 6.4 km/h 8.7 km/h 45% 0.0 mm CLR
09:50 14.4 °C 2.3 °C 1022.4 hPa SSW 5.8 km/h 7.6 km/h 44% 0.0 mm CLR
09:55 14.7 °C 2.2 °C 1022.4 hPa SSW 5.8 km/h 9.3 km/h 43% 0.0 mm CLR
10:00 14.8 °C 2.3 °C 1022.4 hPa SSW 4.8 km/h 9.7 km/h 43% 0.0 mm CLR
10:05 15.1 °C 2.3 °C 1022.4 hPa SSW 5.8 km/h 11.1 km/h 42% 0.0 mm CLR
10:10 15.3 °C 2.1 °C 1022.4 hPa South 6.4 km/h 9.3 km/h 41% 0.0 mm CLR
10:15 15.6 °C 2.4 °C 1022.4 hPa SW 6.4 km/h 9.3 km/h 41% 0.0 mm CLR
10:20 15.8 °C 2.2 °C 1022.3 hPa SSW 6.4 km/h 7.4 km/h 40% 0.0 mm CLR
10:25 16.1 °C 2.5 °C 1022.3 hPa SW 6.4 km/h 7.4 km/h 40% 0.0 mm CLR
10:30 16.3 °C 2.3 °C 1022.3 hPa SW 4.7 km/h 7.6 km/h 39% 0.0 mm CLR
10:35 16.8 °C 2.4 °C 1022.2 hPa SSW 4.7 km/h 7.4 km/h 38% 0.0 mm CLR
10:40 17.2 °C 2.4 °C 1022.2 hPa SSW 3.9 km/h 5.6 km/h 37% 0.0 mm CLR
10:45 17.5 °C 2.2 °C 1022.2 hPa SSW 3.9 km/h 5.6 km/h 36% 0.0 mm CLR
10:50 17.7 °C 2.1 °C 1022.1 hPa SW 4.7 km/h 9.3 km/h 35% 0.0 mm CLR
10:55 18.0 °C 2.3 °C 1022.1 hPa SE 4.7 km/h 5.6 km/h 35% 0.0 mm CLR
11:00 18.1 °C 2.0 °C 1022.1 hPa SSE 4.8 km/h 9.7 km/h 34% 0.0 mm CLR
11:05 18.4 °C 2.2 °C 1021.8 hPa SW 5.0 km/h 7.4 km/h 34% 0.0 mm CLR
11:10 18.7 °C 2.5 °C 1021.8 hPa SW 3.9 km/h 7.4 km/h 34% 0.0 mm CLR
11:15 18.9 °C 2.3 °C 1021.8 hPa SSW 3.9 km/h 7.4 km/h 33% 0.0 mm CLR
11:20 19.2 °C 2.5 °C 1021.7 hPa South 4.7 km/h 3.7 km/h 33% 0.0 mm CLR
11:25 19.4 °C 2.7 °C 1021.7 hPa SSW 4.7 km/h 3.7 km/h 33% 0.0 mm CLR
11:30 19.7 °C 2.6 °C 1021.7 hPa SW 3.2 km/h 7.4 km/h 32% 0.0 mm CLR
11:35 20.1 °C 2.4 °C 1021.5 hPa SSW 3.2 km/h 6.4 km/h 31% 0.0 mm CLR
11:40 20.3 °C 2.6 °C 1021.5 hPa ESE 3.9 km/h 7.4 km/h 31% 0.0 mm CLR
11:45 20.8 °C 2.6 °C 1021.5 hPa South 3.9 km/h 7.4 km/h 30% 0.0 mm CLR
11:50 21.1 °C 2.8 °C 1021.3 hPa SE 3.9 km/h 5.6 km/h 30% 0.0 mm CLR
11:55 21.4 °C 2.6 °C 1021.3 hPa ENE 3.9 km/h 5.6 km/h 29% 0.0 mm CLR
12:00 21.5 °C 2.7 °C 1021.3 hPa East 3.2 km/h 8.0 km/h 29% 0.0 mm CLR
12:05 21.4 °C 2.6 °C 1021.2 hPa ENE 3.9 km/h 7.4 km/h 29% 0.0 mm CLR
12:10 21.5 °C 2.2 °C 1021.2 hPa North 4.7 km/h 7.4 km/h 28% 0.0 mm CLR
12:15 21.6 °C 2.3 °C 1021.2 hPa WSW 4.7 km/h 3.7 km/h 28% 0.0 mm CLR
12:20 21.8 °C 2.4 °C 1020.9 hPa NNE 3.2 km/h 7.4 km/h 28% 0.0 mm CLR
12:25 22.0 °C 2.7 °C 1020.9 hPa North 3.2 km/h 5.6 km/h 28% 0.0 mm CLR
12:30 22.1 °C 2.7 °C 1020.9 hPa North 3.9 km/h 3.7 km/h 28% 0.0 mm CLR
12:35 22.3 °C 2.9 °C 1020.7 hPa North 3.9 km/h 3.7 km/h 28% 0.0 mm CLR
12:40 22.6 °C 2.7 °C 1020.7 hPa North 2.3 km/h 5.6 km/h 27% 0.0 mm CLR
12:45 23.2 °C 3.2 °C 1020.7 hPa North 2.3 km/h   27% 0.0 mm CLR
12:50 23.6 °C 3.5 °C 1020.5 hPa East 2.3 km/h 5.6 km/h 27% 0.0 mm CLR
12:55 23.7 °C 3.6 °C 1020.5 hPa NW 2.3 km/h 9.3 km/h 27% 0.0 mm CLR
13:00 23.6 °C 3.5 °C 1020.5 hPa NNW 4.8 km/h 9.7 km/h 27% 0.0 mm CLR
13:05 23.6 °C 3.5 °C 1020.1 hPa NNE 5.0 km/h 5.8 km/h 27% 0.0 mm CLR
13:10 23.8 °C 3.1 °C 1020.1 hPa NNW 4.7 km/h 7.4 km/h 26% 0.0 mm CLR
13:15 23.9 °C 2.7 °C 1020.1 hPa East 4.7 km/h 6.4 km/h 25% 0.0 mm CLR
13:20 24.2 °C 3.4 °C 1019.7 hPa ENE 4.7 km/h 9.3 km/h 26% 0.0 mm CLR
13:25 24.4 °C 3.1 °C 1019.7 hPa NE 4.7 km/h 11.1 km/h 25% 0.0 mm CLR
13:30 24.4 °C 3.1 °C 1019.7 hPa NNE 6.9 km/h 9.3 km/h 25% 0.0 mm CLR
13:35 24.5 °C 2.6 °C 1019.4 hPa NE 6.9 km/h 9.3 km/h 24% 0.0 mm CLR
13:40 24.6 °C 2.7 °C 1019.4 hPa North 6.4 km/h 9.3 km/h 24% 0.0 mm CLR
13:45 25.0 °C 3.0 °C 1019.4 hPa NW 6.4 km/h 4.7 km/h 24% 0.0 mm CLR
13:50 25.2 °C 2.6 °C 1018.9 hPa NE 3.9 km/h 15.6 km/h 23% 0.0 mm CLR
13:55 25.3 °C 2.1 °C 1018.9 hPa NNE 3.9 km/h 14.8 km/h 22% 0.0 mm CLR
14:00 25.3 °C 1.4 °C 1018.9 hPa ENE 8.0 km/h 14.5 km/h 21% 0.0 mm CLR
14:05 25.6 °C 1.7 °C 1018.7 hPa ENE 6.9 km/h 18.3 km/h 21% 0.0 mm CLR
14:10 25.6 °C 0.9 °C 1018.7 hPa East 5.8 km/h 13.0 km/h 20% 0.0 mm CLR
14:15 25.6 °C -1.3 °C 1018.7 hPa ESE 5.8 km/h 16.7 km/h 17% 0.0 mm CLR
14:20 25.8 °C -0.3 °C 1018.4 hPa ESE 9.5 km/h 14.8 km/h 18% 0.0 mm CLR
14:25 25.8 °C -1.1 °C 1018.4 hPa ESE 9.5 km/h 11.1 km/h 17% 0.0 mm CLR
14:30 25.9 °C -1.1 °C 1018.4 hPa ESE 9.5 km/h 18.5 km/h 17% 0.0 mm CLR
14:35 26.1 °C -0.9 °C 1018.2 hPa East 9.5 km/h 14.8 km/h 17% 0.0 mm CLR
14:40 26.1 °C -0.9 °C 1018.2 hPa ESE 9.5 km/h 22.2 km/h 17% 0.0 mm CLR
14:45 26.1 °C -1.7 °C 1018.2 hPa ESE 9.5 km/h 14.8 km/h 16% 0.0 mm CLR
14:50 26.2 °C 0.0 °C 1017.9 hPa SE 12.2 km/h 16.7 km/h 18% 0.0 mm CLR
14:55 26.1 °C -0.1 °C 1017.9 hPa ESE 12.2 km/h 20.4 km/h 18% 0.0 mm CLR
15:00 25.9 °C -1.1 °C 1017.9 hPa SE 14.5 km/h 20.9 km/h 17% 0.0 mm CLR
15:05 25.9 °C 0.5 °C 1017.7 hPa ESE 14.0 km/h 18.3 km/h 19% 0.0 mm CLR
15:10 25.9 °C 0.5 °C 1017.7 hPa ESE 13.0 km/h 25.9 km/h 19% 0.0 mm CLR
15:15 25.8 °C -0.3 °C 1017.7 hPa ESE 13.0 km/h 16.7 km/h 18% 0.0 mm CLR
15:20 25.9 °C 0.5 °C 1017.5 hPa ESE 13.7 km/h 25.9 km/h 19% 0.0 mm CLR
15:25 25.8 °C 2.4 °C 1017.5 hPa ESE 13.7 km/h 25.9 km/h 22% 0.0 mm CLR
15:30 25.7 °C 3.0 °C 1017.5 hPa ESE 15.6 km/h 16.7 km/h 23% 0.0 mm CLR
15:35 25.8 °C 3.7 °C 1017.3 hPa ESE 15.6 km/h 19.0 km/h 24% 0.0 mm CLR
15:40 25.7 °C 4.2 °C 1017.3 hPa ESE 13.0 km/h 22.2 km/h 25% 0.0 mm CLR
15:45 25.4 °C 3.9 °C 1017.3 hPa SE 13.0 km/h 24.1 km/h 25% 0.0 mm CLR
15:50 25.4 °C 3.3 °C 1017.2 hPa ESE 16.1 km/h 16.7 km/h 24% 0.0 mm CLR
15:55 25.6 °C 3.5 °C 1017.2 hPa ESE 16.1 km/h 18.5 km/h 24% 0.0 mm CLR
16:00 25.6 °C 2.9 °C 1017.2 hPa ESE 12.9 km/h 20.9 km/h 23% 0.0 mm CLR
16:05 25.6 °C 2.9 °C 1017.1 hPa SE 13.7 km/h 22.2 km/h 23% 0.0 mm CLR
16:10 25.7 °C 3.0 °C 1017.1 hPa SE 13.7 km/h 24.1 km/h 23% 0.0 mm CLR
16:15 25.5 °C 2.8 °C 1017.1 hPa ESE 13.7 km/h 22.2 km/h 23% 0.0 mm CLR
16:20 25.6 °C 2.9 °C 1017.0 hPa SE 14.0 km/h 22.2 km/h 23% 0.0 mm CLR
16:25 25.4 °C 2.1 °C 1017.0 hPa ESE 14.0 km/h 25.9 km/h 22% 0.0 mm CLR
16:30 25.4 °C 2.1 °C 1017.0 hPa East 15.6 km/h 24.1 km/h 22% 0.0 mm CLR
16:35 25.3 °C 2.1 °C 1016.9 hPa ESE 15.6 km/h 24.1 km/h 22% 0.0 mm CLR
16:40 25.3 °C 2.1 °C 1016.9 hPa ESE 15.6 km/h 24.1 km/h 22% 0.0 mm CLR
16:45 25.3 °C 2.1 °C 1016.9 hPa ESE 15.6 km/h 18.5 km/h 22% 0.0 mm CLR
16:50 25.3 °C 2.1 °C 1016.7 hPa ESE 14.8 km/h 18.5 km/h 22% 0.0 mm CLR
16:55 25.4 °C 1.5 °C 1016.7 hPa SE 14.8 km/h 16.7 km/h 21% 0.0 mm CLR
17:00 25.3 °C 2.1 °C 1016.7 hPa ESE 12.9 km/h 25.7 km/h 22% 0.0 mm CLR
17:05 25.0 °C 1.8 °C 1016.6 hPa ESE 13.7 km/h 27.8 km/h 22% 0.0 mm CLR
17:10 24.8 °C 1.6 °C 1016.6 hPa SE 16.1 km/h 18.5 km/h 22% 0.0 mm CLR
17:15 24.9 °C 1.7 °C 1016.6 hPa SE 16.1 km/h 22.2 km/h 22% 0.0 mm CLR
17:20 24.9 °C 1.7 °C 1016.6 hPa ESE 14.8 km/h 18.5 km/h 22% 0.0 mm CLR
17:25 24.9 °C 1.7 °C 1016.6 hPa SE 14.8 km/h 22.2 km/h 22% 0.0 mm CLR
17:30 24.7 °C 2.2 °C 1016.6 hPa SE 13.7 km/h 16.7 km/h 23% 0.0 mm CLR
17:35 24.6 °C 2.1 °C 1016.6 hPa SE 13.7 km/h 20.4 km/h 23% 0.0 mm CLR
17:40 24.5 °C 2.0 °C 1016.6 hPa East 13.7 km/h 24.1 km/h 23% 0.0 mm CLR
17:45 24.4 °C 1.9 °C 1016.6 hPa SE 13.7 km/h 20.4 km/h 23% 0.0 mm CLR
17:50 24.2 °C 2.3 °C 1016.6 hPa ESE 16.1 km/h 24.1 km/h 24% 0.0 mm CLR
17:55 24.1 °C 2.3 °C 1016.6 hPa East 16.1 km/h 22.2 km/h 24% 0.0 mm CLR
18:00 24.0 °C 2.2 °C 1016.6 hPa ESE 14.5 km/h 22.5 km/h 24% 0.0 mm CLR
18:05 23.8 °C 2.0 °C 1016.5 hPa SE 14.8 km/h 25.9 km/h 24% 0.0 mm CLR
18:10 23.7 °C 2.5 °C 1016.5 hPa SE 16.1 km/h 22.2 km/h 25% 0.0 mm CLR
18:15 23.6 °C 2.4 °C 1016.5 hPa SE 16.1 km/h 20.4 km/h 25% 0.0 mm CLR
18:20 23.5 °C 2.3 °C 1016.5 hPa SSE 14.8 km/h 18.5 km/h 25% 0.0 mm CLR
18:25 23.2 °C 2.6 °C 1016.5 hPa ESE 14.8 km/h 18.5 km/h 26% 0.0 mm CLR
18:30 23.1 °C 2.6 °C 1016.5 hPa ESE 12.2 km/h 16.7 km/h 26% 0.0 mm CLR
18:35 22.9 °C 1.8 °C 1016.5 hPa SE 12.2 km/h 13.0 km/h 25% 0.0 mm CLR
18:40 22.8 °C 1.2 °C 1016.5 hPa SE 10.3 km/h 14.8 km/h 24% 0.0 mm CLR
18:45 22.8 °C -0.1 °C 1016.5 hPa ESE 10.3 km/h 19.8 km/h 22% 0.0 mm CLR
18:50 22.7 °C -0.1 °C 1016.6 hPa ESE 10.0 km/h 18.5 km/h 22% 0.0 mm CLR
18:55 22.4 °C -0.4 °C 1016.6 hPa SE 10.0 km/h 14.8 km/h 22% 0.0 mm CLR
19:00 22.3 °C -0.5 °C 1016.6 hPa ESE 11.3 km/h 17.7 km/h 22% 0.0 mm CLR
19:05 22.1 °C -1.3 °C 1016.6 hPa SE 11.1 km/h 13.0 km/h 21% 0.0 mm CLR
19:10 21.9 °C -1.4 °C 1016.6 hPa ESE 10.0 km/h 13.0 km/h 21% 0.0 mm CLR
19:15 21.7 °C -2.3 °C 1016.6 hPa ESE 10.0 km/h 12.2 km/h 20% 0.0 mm CLR
19:20 21.5 °C -1.8 °C 1016.7 hPa ESE 8.7 km/h 13.0 km/h 21% 0.0 mm CLR
19:25 21.4 °C -1.8 °C 1016.7 hPa ESE 8.7 km/h 14.0 km/h 21% 0.0 mm CLR
19:30 21.3 °C -1.3 °C 1016.7 hPa ESE 9.5 km/h 11.1 km/h 22% 0.0 mm CLR
19:35 21.3 °C -0.7 °C 1016.8 hPa ESE 9.5 km/h 13.0 km/h 23% 0.0 mm CLR
19:40 21.1 °C -0.3 °C 1016.8 hPa ESE 8.7 km/h 9.3 km/h 24% 0.0 mm CLR
19:45 20.9 °C 0.1 °C 1016.8 hPa ENE 8.7 km/h 5.8 km/h 25% 0.0 mm CLR
19:50 20.7 °C 1.0 °C 1016.8 hPa NNW 5.0 km/h 11.1 km/h 27% 0.0 mm CLR
19:55 20.2 °C 2.5 °C 1016.8 hPa NNW 5.0 km/h 11.1 km/h 31% 0.0 mm CLR
20:00 19.8 °C 3.0 °C 1016.8 hPa NNE 4.8 km/h 14.5 km/h 33% 0.0 mm CLR
20:05 19.2 °C 3.3 °C 1016.9 hPa NE 5.8 km/h 11.1 km/h 35% 0.0 mm CLR
20:10 18.9 °C 3.5 °C 1016.9 hPa North 8.4 km/h 11.1 km/h 36% 0.0 mm CLR
20:15 18.6 °C 3.6 °C 1016.9 hPa ENE 8.4 km/h 8.7 km/h 37% 0.0 mm CLR
20:20 18.4 °C 3.1 °C 1016.9 hPa NE 7.6 km/h 13.0 km/h 36% 0.0 mm CLR
20:25 18.3 °C 3.3 °C 1016.9 hPa NNE 7.6 km/h 13.0 km/h 37% 0.0 mm CLR
20:30 18.2 °C 3.6 °C 1016.9 hPa North 8.7 km/h 9.3 km/h 38% 0.0 mm CLR
20:35 18.0 °C 3.8 °C 1017.2 hPa West 8.7 km/h 13.0 km/h 39% 0.0 mm CLR
20:40 17.6 °C 4.2 °C 1017.2 hPa North 7.6 km/h 11.1 km/h 41% 0.0 mm CLR
20:45 17.4 °C 4.7 °C 1017.2 hPa NNE 7.6 km/h 7.4 km/h 43% 0.0 mm CLR
20:50 17.2 °C 4.8 °C 1017.3 hPa NNE 5.8 km/h 7.6 km/h 44% 0.0 mm CLR
20:55 16.9 °C 4.9 °C 1017.3 hPa NNW 5.8 km/h 7.4 km/h 45% 0.0 mm CLR
21:00 16.8 °C 5.1 °C 1017.3 hPa North 3.2 km/h 9.7 km/h 46% 0.0 mm CLR
21:05 16.6 °C 5.2 °C 1017.4 hPa NW 4.7 km/h 7.4 km/h 47% 0.0 mm CLR
21:10 16.5 °C 5.4 °C 1017.4 hPa NE 4.7 km/h 7.4 km/h 48% 0.0 mm CLR
21:15 16.3 °C 5.8 °C 1017.4 hPa NE 4.7 km/h 11.1 km/h 50% 0.0 mm CLR
21:20 16.1 °C 5.9 °C 1017.4 hPa NNE 7.6 km/h 13.0 km/h 51% 0.0 mm CLR
21:25 15.9 °C 6.6 °C 1017.4 hPa NNE 7.6 km/h 13.0 km/h 54% 0.0 mm CLR
21:30 15.7 °C 6.9 °C 1017.4 hPa North 9.5 km/h 13.0 km/h 56% 0.0 mm CLR
21:35 15.4 °C 6.9 °C 1017.5 hPa NE 9.5 km/h 13.0 km/h 57% 0.0 mm CLR
21:40 15.3 °C 7.3 °C 1017.5 hPa North 7.6 km/h 9.3 km/h 59% 0.0 mm CLR
21:45 15.1 °C 7.4 °C 1017.5 hPa NNE 7.6 km/h 11.1 km/h 60% 0.0 mm CLR
21:50 14.9 °C 7.4 °C 1017.6 hPa NE 6.9 km/h 9.3 km/h 61% 0.0 mm CLR
21:55 14.8 °C 7.6 °C 1017.6 hPa NE 6.9 km/h 10.0 km/h 62% 0.0 mm CLR
22:00 14.8 °C 8.0 °C 1017.6 hPa NNE 4.8 km/h 11.3 km/h 64% 0.0 mm CLR
22:05 14.7 °C 7.9 °C 1017.7 hPa NE 5.8 km/h 9.3 km/h 64% 0.0 mm CLR
22:10 14.7 °C 7.9 °C 1017.7 hPa NNE 6.4 km/h 9.3 km/h 64% 0.0 mm CLR
22:15 14.6 °C 8.1 °C 1017.7 hPa NNE 6.4 km/h 5.6 km/h 65% 0.0 mm CLR
22:20 14.6 °C 8.3 °C 1017.8 hPa NNE 5.0 km/h 3.7 km/h 66% 0.0 mm CLR
22:25 14.5 °C 8.2 °C 1017.8 hPa NNE 5.0 km/h 3.7 km/h 66% 0.0 mm CLR
22:30 14.6 °C 8.6 °C 1017.8 hPa NE 2.9 km/h 7.4 km/h 67% 0.0 mm CLR
22:35 14.6 °C 8.6 °C 1017.7 hPa NE 2.9 km/h 5.6 km/h 67% 0.0 mm CLR
22:40 14.6 °C 8.6 °C 1017.7 hPa NE 3.2 km/h 3.7 km/h 67% 0.0 mm CLR
22:45 14.6 °C 8.6 °C 1017.7 hPa NE 3.2 km/h 5.6 km/h 67% 0.0 mm CLR
22:50 14.6 °C 8.6 °C 1017.7 hPa NE 2.9 km/h 5.6 km/h 67% 0.0 mm CLR
22:55 14.6 °C 8.8 °C 1017.7 hPa NE 2.9 km/h 4.7 km/h 68% 0.0 mm CLR
23:00 14.6 °C 8.8 °C 1017.7 hPa NE 3.2 km/h 6.4 km/h 68% 0.0 mm CLR
23:05 14.5 °C 8.9 °C 1017.5 hPa NE 2.9 km/h 5.6 km/h 69% 0.0 mm CLR
23:10 14.5 °C 8.9 °C 1017.5 hPa NE 3.2 km/h 3.7 km/h 69% 0.0 mm CLR
23:15 14.4 °C 8.8 °C 1017.5 hPa NE 3.2 km/h 3.7 km/h 69% 0.0 mm CLR
23:20 14.4 °C 8.8 °C 1017.4 hPa NE 2.9 km/h 1.9 km/h 69% 0.0 mm CLR
23:25 14.3 °C 8.4 °C 1017.4 hPa NE 2.9 km/h 3.9 km/h 68% 0.0 mm CLR
23:30 14.3 °C 8.3 °C 1017.4 hPa NE 2.9 km/h 3.7 km/h 67% 0.0 mm CLR
23:35 14.1 °C 8.1 °C 1017.4 hPa NE 2.9 km/h 3.7 km/h 67% 0.0 mm CLR
23:40 14.1 °C 7.8 °C 1017.4 hPa NE 2.3 km/h 4.7 km/h 66% 0.0 mm CLR
23:45 14.0 °C 7.7 °C 1017.4 hPa NE 2.3 km/h 5.6 km/h 66% 0.0 mm CLR
23:50 13.9 °C 7.4 °C 1017.3 hPa NE 3.2 km/h 3.7 km/h 65% 0.0 mm CLR
23:55 13.9 °C 7.4 °C 1017.3 hPa NE 3.2 km/h 3.7 km/h 65% 0.0 mm CLR
Murcia-Puente Tocinos, España
Compliments of Weather Underground - 2.5 mb

La estación de MeteoMurcia.com, publica sus datos en los siguientes proyectos:

Weather Underground PWS IMURCIAP2 Meteoclimatic www.awekas.at

W3Counter
Web Analytics